Location: Mactaquac Provincial Park
(45.9573°N, 66.8897°W)
Time: 00:15:15
(UTC-03:00)

CENTAUR R/B - Visible Passes

Search period start: 26 August 2016 00:00
Search period end: 05 September 2016 00:00
Orbit: 851 x 1337 km, 63.5° (Epoch: 22 July)

Date Brightness Start Highest point End Pass type
(mag) Time Alt. Az. Time Alt. Az. Time Alt. Az.
26 Aug 4.1 04:18:23 13° SSE 04:22:40 27° ESE 04:28:09 10° NE visible
26 Aug 2.7 06:06:28 10° SW 06:12:40 67° NW 06:19:44 10° NE visible
27 Aug 4.6 03:32:04 11° SE 03:35:04 15° ESE 03:38:38 10° ENE visible
27 Aug 2.6 05:19:17 16° SSW 05:24:26 82° SE 05:31:26 10° NE visible
28 Aug 3.1 04:32:54 25° S 04:36:23 51° ESE 04:43:00 10° NE visible
29 Aug 3.7 03:46:30 25° SE 03:48:33 31° ESE 03:54:19 10° NE visible
29 Aug 2.8 05:33:42 16° WSW 05:38:43 61° NW 05:45:46 10° NE visible
30 Aug 4.3 03:00:03 17° ESE 03:00:54 18° ESE 03:05:05 10° ENE visible
30 Aug 2.5 04:47:14 32° SW 04:50:25 90° SE 04:57:28 10° NE visible
31 Aug 2.8 04:00:45 45° SSE 04:02:19 57° ESE 04:09:04 10° NE visible
31 Aug 3.4 05:47:56 13° WSW 05:53:20 39° NW 06:00:02 10° NNE visible
01 Sep 3.5 03:14:13 35° ESE 03:14:26 35° ESE 03:20:28 10° NE visible
01 Sep 2.9 05:01:24 28° WSW 05:04:46 56° NW 05:11:46 10° NE visible
02 Sep 4.3 02:27:39 20° E 02:27:39 20° E 02:31:24 10° ENE visible
02 Sep 2.5 04:14:50 55° SW 04:16:25 83° NW 04:23:29 10° NE visible
02 Sep 4.0 06:02:38 10° W 06:08:13 28° NNW 06:14:23 10° NNE visible
03 Sep 2.6 03:28:14 64° ESE 03:28:16 64° ESE 03:35:08 10° NE visible
03 Sep 3.6 05:15:25 19° W 05:19:26 37° NNW 05:26:03 10° NNE visible
04 Sep 3.6 02:41:37 36° E 02:41:37 36° E 02:46:35 10° NE visible
04 Sep 3.0 04:28:48 38° W 04:30:50 51° NW 04:37:46 10° NE visible
04 Sep 4.4 06:18:10 10° WNW 06:23:20 22° NNW 06:28:58 10° NE visible
